Tracking 28091 objects as of 30-Sep-2023
HD Live streaming from Space Station
objects crossing your sky now

STARLINK-5542

Track STARLINK-5542 now!
10-day predictions
STARLINK-5542 is classified as:


NORAD ID: 57075
Int'l Code: 2023-088AD
Perigee: 565.6 km
Apogee: 566.9 km
Inclination: 43.0 °
Period: 95.8 minutes
Semi major axis: 6937 km
RCS: Unknown
Launch date: June 22, 2023
Source: United States (US)
Launch site: AIR FORCE WESTERN TEST RANGE (AFWTR)
Your satellite tracking list
Your tracking list is empty




NASA's NSSDC Master Catalog

Two Line Element Set (TLE):
1 57075U 23088AD  23273.13600667  .00000565  00000-0  56915-4 0  9997
2 57075  43.0016 259.1954 0000931 266.4773  93.5963 15.02534790 16405
Source of the keplerian elements: AFSPC